Regional Weather Roundup
Issued by NWS

Home | Current Version | Previous Version | Graphics & Text | Print | Product List | Glossary On
Versions: 1 2 3 4 5 6 7 8 9 10 11 12 13 14 15 16 17 18 19 20 21 22 23 24 25 26 27 28 29 30 31 32 33 34 35 36 37 38 39 40 41 42 43 44 45 46 47 48 49 50
968
ASUS43 KDMX 150501
RWRIA

WEATHER ROUNDUP FOR IOWA
NATIONAL WEATHER SERVICE DES MOINES IA
1100 PM CST THU DEC 14 2017

NOTE: "FAIR" INDICATES FEW OR NO CLOUDS BELOW 12,000 FEET WITH NO
SIGNIFICANT WEATHER AND/OR OBSTRUCTIONS TO VISIBILITY.

* - THESE STATIONS ARE NOT NWS STATIONS...THUS NOT UNDER NWS
QUALITY CONTROL.  THEY ALSO DO NOT REPORT WEATHER SUCH
AS PRECIPITATION OR FOG.

IAZ001>003-012>014-020>022-031>034-043>046-150600-
   NORTHWEST IOWA

CITY           SKY/WX    TMP DP  RH WIND       PRES   REMARKS
CARROLL *      CLOUDY    32  27  80 N15G22    30.08R WCI  22
CHEROKEE *     CLOUDY    27  24  86 NW6       30.11S WCI  21
DENISON *      MIX PCPN  32  27  80 NW14      30.11R WCI  22
LE MARS *      CLOUDY    30  25  80 NW6       30.11F WCI  24
ORANGE CITY *  CLOUDY    28  27  93 NW5       30.09F WCI  23
SHELDON *      CLOUDY    28  23  80 NW8       30.06F WCI  20
SIOUX CITY     CLOUDY    31  25  78 NW12      30.13S WCI  22
SPENCER        CLOUDY    25  22  88 W5        30.07F WCI  19
STORM LAKE *   CLEAR     23  21  93 N9        30.08S WCI  13
$$

IAZ055>058-069>071-079>083-090>094-150600-
   SOUTHWEST IOWA

CITY           SKY/WX    TMP DP  RH WIND       PRES   REMARKS
ATLANTIC *     CLOUDY    34  28  80 W7        30.10S WCI  28
AUDUBON *      CLOUDY    32  28  86 W7        30.09S WCI  26
CLARINDA *     CLOUDY    30  27  86 CALM      30.13S
COUNCIL BLFS * MOCLDY    34  28  80 NW9       30.11S WCI  26
CRESTON *      CLOUDY    28  25  86 W7        30.09S WCI  21
HARLAN  *      CLOUDY    34  30  86 W8        30.13S WCI  27
LAMONI         CLOUDY    30  23  75 SW5       30.09S WCI  25
RED OAK *      CLOUDY    34  25  69 W5        30.11S WCI  30
SHENANDOAH *   CLOUDY    32  25  74 SW3       30.13S
$$

IAZ047>049-059>061-072>074-084-150600-
   CENTRAL IOWA

CITY           SKY/WX    TMP DP  RH WIND       PRES   REMARKS
AMES           CLOUDY    30  26  85 N10       30.07R WCI  21
ANKENY *       CLOUDY    32  25  74 NW6       30.08S WCI  26
BOONE *        MIX PCPN  30  27  86 N12       30.05R WCI  21
CHARITON *     CLOUDY    30  25  80 SW7       30.07F WCI  23
DES MOINES     CLOUDY    32  24  72 W3        30.07F
GRINNELL*      CLOUDY    28  22  78 W5        30.06S WCI  22
KNOXVILLE *    CLOUDY    30  19  64 SW7       30.05F WCI  23
MARSHALLTOWN   CLOUDY    28  23  81 NW12      30.05R WCI  18
NEWTON *       CLOUDY    28  23  80 W6        30.06S WCI  22
PELLA *        CLOUDY    30  21  69 SW5       30.07F WCI  25
$$

IAZ004>006-015-016-023>025-035-036-150600-
   NORTH CENTRAL IOWA

CITY           SKY/WX    TMP DP  RH WIND       PRES   REMARKS
ALGONA *       CLEAR     23  23 100 NW10      30.06S WCI  12
CLARION *      CLOUDY    27  27 100 NW17      30.06R WCI  14
ESTHERVILLE    CLOUDY    24  20  84 W8        30.05F WCI  15
FORT DODGE *   CLOUDY    27  25  92 NW10      30.07S WCI  17
MASON CITY     CLOUDY    25  18  74 NW16      30.04S WCI  12
FOREST CITY *  CLOUDY    27  21  80 NW10G16   30.04S WCI  17
WEBSTER CITY * CLOUDY    28  25  86 NW13      30.05R WCI  18
IOWA FALLS *   CLOUDY    28  24  83 NW12      30.06S WCI  18
$$

IAZ007>011-017>019-026>030-037>042-050>054-066-150600-
   NORTHEAST IOWA

CITY           SKY/WX    TMP DP  RH WIND       PRES   REMARKS
CEDAR RAPIDS   CLOUDY    26  19  74 SW8       30.03F WCI  18
CHARLES CITY * CLOUDY    27  21  80 NW13      30.02S WCI  16
CLINTON *      CLOUDY    25  18  74 SW9       30.05S WCI  15
DECORAH *      CLOUDY    23  18  80 NW12G18   29.98F WCI  12
DUBUQUE        CLOUDY    24  18  77 W10       30.00S WCI  14
MONTICELLO *   CLOUDY    27  18  69 W7        30.02F WCI  19
OELWEIN *      CLOUDY    25  21  86 NW9       30.02S WCI  15
WATERLOO       CLOUDY    26  19  74 W8        30.04S WCI  18
$$

IAZ064-065-067-068-078-150600-
   EAST CENTRAL IOWA

CITY           SKY/WX    TMP DP  RH WIND       PRES   REMARKS
DAVENPORT      CLOUDY    25  16  68 SW8       30.07F WCI  16
IOWA CITY      CLOUDY    27  18  69 SW5       30.08S WCI  22
MT. PLEASANT * CLOUDY    26  19  73 SW7       30.08F WCI  19
MUSCATINE *    CLOUDY    27  18  69 SW5       30.08S WCI  21
QUAD CITIES    CLOUDY    26  17  68 SW8       30.05F WCI  18
$$

IAZ062-063-075>077-085>089-095>099-150600-
   SOUTHEAST IOWA

CITY           SKY/WX    TMP DP  RH WIND       PRES   REMARKS
BURLINGTON     CLOUDY    26  19  74 SW6       30.07S WCI  19
FAIRFIELD *    CLOUDY    27  18  69 SW8       30.07S WCI  18
FORT MADISON * CLOUDY    27  19  74 SW5       30.09S WCI  21
KEOKUK *       CLOUDY    27  19  74 SW6       30.09S WCI  20
OSKALOOSA *    CLOUDY    26  20  80 SW7       30.06F WCI  18
OTTUMWA        CLOUDY    26  18  71 SW6       30.07F WCI  19
WASHINGTON *   CLOUDY    25  19  80 SW7       30.08S WCI  17
$$

ABBREVIATIONS USED IN REMARKS
   TC - TEMPERATURES IN CELSIUS
  WCI - WIND CHILL INDEX
   HX - HEAT INDEX
  VSB - VISIBILITY
$$





USA.gov is the U.S. government's official web portal to all federal, state and local government web resources and services.